EW1970 Weather Reports


Display with metric or nautical units.
time (UTC)temp
F
wind
direction
speed
MPH
gust
MPH
rain 1hr
in
rain 24hr
in
rain mn
in
humidity
%
barometer
mb
20260831064531 81 131 0.0 2.0 0.00 0.00 0.00 75 1016.7
20260831063012 81 182 0.0 3.0 0.00 0.00 0.00 74 1016.7
20260831061513 82 238 0.0 4.0 0.00 0.00 0.00 73 1016.7
20260831060022 82 167 0.0 6.0 0.00 0.00 0.00 72 1016.5
20260831054529 83 5 0.0 7.0 0.00 0.00 0.00 70 1016.3
20260831053031 83 105 1.0 5.0 0.00 0.00 0.00 68 1016.2
20260831051513 83 119 0.0 3.0 0.00 0.00 0.00 67 1016.2
20260831050021 84 70 0.0 5.0 0.00 0.00 0.00 65 1016.1
20260831044527 84 352 0.0 4.0 0.00 0.00 0.00 64 1016.0
20260831043033 85 166 1.0 6.0 0.00 0.00 0.00 63 1016.0
20260831041546 85 211 1.0 8.0 0.00 0.00 0.00 63 1016.1
20260831040015 86 204 1.0 8.0 0.00 0.00 0.00 62 1016.0
20260831034529 86 5 1.0 8.0 0.00 0.00 0.00 62 1015.8
20260831033029 86 130 1.0 8.0 0.00 0.00 0.00 61 1015.7
20260831031540 87 204 1.0 7.0 0.00 0.00 0.00 60 1015.5
20260831030032 87 125 1.0 7.0 0.00 0.00 0.00 61 1015.2
20260831024520 87 79 1.0 4.0 0.00 0.00 0.00 60 1015.0
20260831023004 87 198 1.0 7.0 0.00 0.00 0.00 59 1014.9
20260831021508 88 116 1.0 10.0 0.00 0.00 0.00 56 1014.6
20260831020013 86 128 2.0 9.0 0.00 0.00 0.00 55 1014.3
20260831014516 86 132 0.0 2.0 0.00 0.00 0.00 52 1014.1
20260831013024 87 93 0.0 2.0 0.00 0.00 0.00 51 1013.9
20260831011505 88 185 0.0 2.0 0.00 0.00 0.00 50 1013.7
20260831010010 89 121 0.0 2.0 0.00 0.00 0.00 50 1013.9
20260831004516 90 121 0.0 3.0 0.00 0.00 0.00 49 1013.8
20260831003021 91 142 0.0 4.0 0.00 0.00 0.00 47 1013.7
20260831001528 91 107 0.0 2.0 0.00 0.00 0.00 47 1013.6
20260831000019 91 167 1.0 5.0 0.00 0.00 0.00 46 1013.6
20260830234543 91 129 0.0 3.0 0.00 0.00 0.00 49 1013.7
20260830233021 92 144 0.0 4.0 0.00 0.00 0.00 46 1013.7
20260830231522 94 40 0.0 2.0 0.00 0.00 0.00 44 1013.7
20260830230032 93 117 0.0 3.0 0.00 0.00 0.00 45 1013.7
20260830224511 93 150 0.0 4.0 0.00 0.00 0.00 44 1013.8
20260830223018 96 60 0.0 5.0 0.00 0.00 0.00 40 1013.8
20260830221528 96 30 0.0 4.0 0.00 0.00 0.00 40 1013.8
20260830220030 98 143 1.0 4.0 0.00 0.00 0.00 40 1013.9
20260830214532 98 28 0.0 4.0 0.00 0.00 0.00 40 1014.1
20260830213021 99 130 1.0 6.0 0.00 0.00 0.00 39 1014.2
20260830211520 99 190 1.0 3.0 0.00 0.00 0.00 39 1014.7
20260830210028 99 242 1.0 9.0 0.00 0.00 0.00 38 1015.0
20260830204540 97 289 2.0 5.0 0.00 0.00 0.00 42 1015.2
20260830203049 99 162 1.0 6.0 0.00 0.00 0.00 40 1015.3
20260830201517 100 287 1.0 6.0 0.00 0.00 0.00 40 1015.5
20260830200039 99 198 0.0 6.0 0.00 0.00 0.00 42 1015.7
20260830195441 99 229 1.0 5.0 0.00 0.00 0.00 42 1015.9
20260830195435 99 64 0.0 8.0 0.00 0.00 0.00 41 1016.1
20260830191513 98 264 2.0 6.0 0.00 0.00 0.00 43 1016.4
20260830190003 97 246 1.0 4.0 0.00 0.00 0.00 46 1016.6
20260830184515 97 126 1.0 8.0 0.00 0.00 0.00 46 1016.7
20260830183006 96 293 2.0 8.0 0.00 0.00 0.00 45 1016.9
20260830181510 95 264 0.0 7.0 0.00 0.00 0.00 48 1017.1
20260830180019 96 72 2.0 6.0 0.00 0.00 0.00 50 1017.6
20260830174503 91 157 1.0 8.0 0.00 0.00 0.00 56 1017.9
20260830173005 94 190 1.0 6.0 0.00 0.00 0.00 52 1018.0
20260830171511 93 178 2.0 6.0 0.00 0.00 0.00 54 1018.3
20260830170014 92 139 1.0 4.0 0.00 0.00 0.00 56 1018.3
20260830164542 90 55 2.0 7.0 0.00 0.00 0.00 58 1018.5
20260830163006 89 86 1.0 5.0 0.00 0.00 0.00 61 1018.5
20260830161506 87 228 0.0 4.0 0.00 0.00 0.00 64 1018.6
20260830160012 86 121 1.0 5.0 0.00 0.00 0.00 65 1018.6
20260830154524 85 117 1.0 8.0 0.00 0.00 0.00 69 1018.4
20260830153025 84 255 1.0 6.0 0.00 0.00 0.00 71 1018.3
20260830151506 84 225 1.0 9.0 0.00 0.00 0.00 72 1018.2
20260830150017 82 277 0.0 8.0 0.00 0.00 0.00 76 1018.3
20260830144518 81 206 1.0 10.0 0.00 0.00 0.00 78 1018.3
20260830143024 80 304 2.0 7.0 0.00 0.00 0.00 80 1018.4
20260830141527 79 240 2.0 9.0 0.00 0.00 0.00 81 1018.4
20260830140014 79 271 1.0 7.0 0.00 0.00 0.00 83 1018.1
20260830134522 78 217 2.0 8.0 0.00 0.00 0.00 85 1018.0
20260830133023 77 97 1.0 4.0 0.00 0.00 0.00 87 1017.9
20260830131536 76 290 0.0 3.0 0.00 0.00 0.00 88 1017.8
20260830130028 75 243 0.0 2.0 0.00 0.00 0.00 89 1017.7
20260830124513 74 257 0.0 2.0 0.00 0.00 0.00 89 1017.6
20260830123019 74 219 0.0 2.0 0.00 0.00 0.00 89 1017.5
20260830121526 74 259 0.0 2.0 0.00 0.00 0.00 88 1017.5
20260830120031 74 232 0.0 2.0 0.00 0.00 0.00 88 1017.3
20260830114534 74 107 0.0 2.0 0.00 0.00 0.00 87 1017.1
20260830113015 74 215 0.0 2.0 0.00 0.00 0.00 86 1017.2
20260830111523 75 264 0.0 2.0 0.00 0.00 0.00 86 1017.0
20260830110031 75 238 0.0 2.0 0.00 0.00 0.00 85 1016.9
20260830104510 75 269 0.0 2.0 0.00 0.00 0.00 84 1016.8
20260830103021 75 223 0.0 1.0 0.00 0.00 0.00 83 1016.8
20260830101524 76 248 0.0 2.0 0.00 0.00 0.00 81 1016.8
20260830100005 77 242 0.0 3.0 0.00 0.00 0.00 1016.8
20260830094508 77 252 0.0 2.0 0.00 0.00 0.00 78 1016.7
20260830093014 78 248 1.0 3.0 0.00 0.00 0.00 78 1016.6
20260830091519 78 21 0.0 4.0 0.00 0.00 0.00 77 1016.6
20260830090026 77 167 0.0 2.0 0.00 0.00 0.00 77 1016.7
20260830084504 78 260 0.0 2.0 0.00 0.00 0.00 76 1016.8
20260830083007 78 360 0.0 2.0 0.00 0.00 0.00 76 1016.7
20260830081517 79 130 0.0 2.0 0.00 0.00 0.00 75 1016.8
20260830080021 79 198 0.0 3.0 0.00 0.00 0.00 75 1017.0
20260830074528 80 84 0.0 2.0 0.00 0.00 0.00 73 1017.0
20260830073009 80 132 0.0 3.0 0.00 0.00 0.00 73 1017.1
20260830071517 80 155 0.0 3.0 0.00 0.00 0.00 72 1017.1
20260830070018 80 178 0.0 2.0 0.00 0.00 0.00 72 1017.2